Time,TemperatureF,DewpointF,PressureIn,WindDirection,WindDirectionDegrees,WindSpeedMPH,WindSpeedGustMPH,Humidity,HourlyPrecipIn,Conditions,Clouds,dailyrainin,SoftwareType,DateUTC
2013-04-12 00:01:00,39.2,37.6,29.70,WSW,248,12.0,19.0,94,0.00,,,0.29,meteohub,2013-04-12 05:01:00,
2013-04-12 00:06:00,39.0,37.8,29.68,South,180,9.0,19.0,95,0.00,,,0.00,meteohub,2013-04-12 05:06:00,
2013-04-12 00:11:00,38.8,37.6,29.68,WSW,248,18.0,19.0,95,0.00,,,0.00,meteohub,2013-04-12 05:11:00,
2013-04-12 00:16:00,38.7,37.0,29.68,West,270,10.0,18.0,94,0.00,,,0.00,meteohub,2013-04-12 05:16:00,
2013-04-12 00:21:00,38.7,37.0,29.70,WSW,248,5.0,18.0,94,0.00,,,0.00,meteohub,2013-04-12 05:21:00,
2013-04-12 00:26:00,38.7,37.0,29.70,West,270,6.0,18.0,94,0.00,,,0.00,meteohub,2013-04-12 05:26:00,
2013-04-12 00:31:00,38.7,37.0,29.70,East,90,4.0,17.0,94,0.00,,,0.00,meteohub,2013-04-12 05:31:00,
2013-04-12 00:36:00,38.7,37.4,29.68,West,270,5.0,13.0,95,0.00,,,0.00,meteohub,2013-04-12 05:36:00,
2013-04-12 00:41:00,38.5,36.9,29.68,West,270,8.0,12.0,94,0.00,,,0.00,meteohub,2013-04-12 05:41:00,
2013-04-12 00:46:00,38.1,36.3,29.68,WSW,248,18.0,18.0,93,0.00,,,0.00,meteohub,2013-04-12 05:46:00,
2013-04-12 00:51:00,38.1,36.3,29.70,WSW,248,12.0,18.0,93,0.00,,,0.00,meteohub,2013-04-12 05:51:00,
2013-04-12 00:56:00,38.1,36.3,29.70,NNW,338,9.0,18.0,93,0.00,,,0.00,meteohub,2013-04-12 05:56:00,
2013-04-12 01:01:00,37.9,35.8,29.70,West,270,6.0,20.0,92,0.00,,,0.00,meteohub,2013-04-12 06:01:00,
2013-04-12 01:06:00,37.9,35.8,29.70,SSE,158,9.0,20.0,92,0.00,,,0.00,meteohub,2013-04-12 06:06:00,
2013-04-12 01:11:00,37.8,35.6,29.70,West,270,9.0,18.0,92,0.00,,,0.00,meteohub,2013-04-12 06:11:00,
2013-04-12 01:16:00,37.8,35.4,29.70,WNW,292,13.0,25.0,91,0.00,,,0.00,meteohub,2013-04-12 06:16:00,
2013-04-12 01:21:00,37.8,35.4,29.70,WSW,248,6.0,25.0,91,0.00,,,0.00,meteohub,2013-04-12 06:21:00,
2013-04-12 01:26:00,37.8,35.4,29.70,WSW,248,7.0,25.0,91,0.00,,,0.00,meteohub,2013-04-12 06:26:00,
2013-04-12 01:31:00,37.8,35.4,29.68,SSE,158,10.0,17.0,91,0.00,,,0.00,meteohub,2013-04-12 06:31:00,
2013-04-12 01:37:00,37.8,35.4,29.68,South,180,12.0,17.0,91,0.00,,,0.00,meteohub,2013-04-12 06:37:00,
2013-04-12 01:42:00,37.8,35.4,29.68,WSW,248,13.0,17.0,91,0.00,,,0.00,meteohub,2013-04-12 06:42:00,
2013-04-12 01:47:00,37.8,35.4,29.70,WSW,248,7.0,17.0,91,0.00,,,0.00,meteohub,2013-04-12 06:47:00,
2013-04-12 01:52:00,37.8,35.4,29.70,West,270,4.0,17.0,91,0.00,,,0.00,meteohub,2013-04-12 06:52:00,
2013-04-12 01:56:00,37.8,35.4,29.70,WSW,248,5.0,17.0,91,0.00,,,0.00,meteohub,2013-04-12 06:56:00,
2013-04-12 02:01:00,37.8,35.4,29.70,SSW,202,7.0,12.0,91,0.00,,,0.00,meteohub,2013-04-12 07:01:00,
2013-04-12 02:07:00,37.6,35.2,29.70,ENE,68,6.0,14.0,91,0.00,,,0.00,meteohub,2013-04-12 07:07:00,
2013-04-12 02:12:00,37.6,34.9,29.70,WSW,248,10.0,15.0,90,0.00,,,0.00,meteohub,2013-04-12 07:12:00,
2013-04-12 02:17:00,37.6,34.9,29.70,West,270,15.0,17.0,90,0.00,,,0.00,meteohub,2013-04-12 07:17:00,
2013-04-12 02:22:00,37.4,34.5,29.68,East,90,7.0,21.0,89,0.00,,,0.00,meteohub,2013-04-12 07:22:00,
2013-04-12 02:27:00,37.4,34.5,29.68,WSW,248,2.0,21.0,89,0.00,,,0.00,meteohub,2013-04-12 07:27:00,
2013-04-12 02:32:00,37.4,34.5,29.68,West,270,10.0,21.0,89,0.00,,,0.00,meteohub,2013-04-12 07:32:00,
2013-04-12 02:37:00,37.4,34.5,29.68,WSW,248,5.0,16.0,89,0.00,,,0.00,meteohub,2013-04-12 07:37:00,
2013-04-12 02:42:00,37.4,34.5,29.68,West,270,6.0,16.0,89,0.00,,,0.00,meteohub,2013-04-12 07:42:00,
2013-04-12 02:47:00,37.4,34.5,29.68,SW,225,10.0,16.0,89,0.00,,,0.00,meteohub,2013-04-12 07:47:00,
2013-04-12 02:52:00,37.2,34.3,29.68,West,270,5.0,16.0,89,0.00,,,0.00,meteohub,2013-04-12 07:52:00,
2013-04-12 02:57:00,37.2,34.5,29.68,ENE,68,5.0,13.0,90,0.00,,,0.00,meteohub,2013-04-12 07:57:00,
2013-04-12 03:02:00,37.0,34.3,29.68,WSW,248,10.0,13.0,90,0.00,,,0.00,meteohub,2013-04-12 08:02:00,
2013-04-12 03:07:00,36.9,34.2,29.68,WSW,248,10.0,13.0,90,0.00,,,0.00,meteohub,2013-04-12 08:07:00,
2013-04-12 03:12:00,36.9,34.2,29.68,WSW,248,7.0,21.0,90,0.00,,,0.00,meteohub,2013-04-12 08:12:00,
2013-04-12 03:17:00,36.9,34.2,29.68,SW,225,9.0,21.0,90,0.00,,,0.00,meteohub,2013-04-12 08:17:00,
2013-04-12 03:22:00,36.9,34.5,29.68,West,270,5.0,21.0,91,0.00,,,0.00,meteohub,2013-04-12 08:22:00,
2013-04-12 03:27:00,36.7,34.3,29.68,West,270,9.0,20.0,91,0.00,,,0.00,meteohub,2013-04-12 08:27:00,
2013-04-12 03:32:00,36.7,34.3,29.68,West,270,10.0,20.0,91,0.00,,,0.00,meteohub,2013-04-12 08:32:00,
2013-04-12 03:37:00,36.7,34.3,29.68,WSW,248,7.0,20.0,91,0.00,,,0.00,meteohub,2013-04-12 08:37:00,
2013-04-12 03:42:00,36.7,34.5,29.68,West,270,12.0,14.0,92,0.00,,,0.00,meteohub,2013-04-12 08:42:00,
2013-04-12 03:47:00,36.7,34.5,29.68,South,180,9.0,14.0,92,0.00,,,0.00,meteohub,2013-04-12 08:47:00,
2013-04-12 03:52:00,36.7,34.5,29.68,East,90,6.0,13.0,92,0.00,,,0.00,meteohub,2013-04-12 08:52:00,
2013-04-12 03:57:00,36.9,34.7,29.68,ENE,68,13.0,13.0,92,0.00,,,0.00,meteohub,2013-04-12 08:57:00,
2013-04-12 04:02:00,36.9,34.7,29.65,East,90,7.0,14.0,92,0.00,,,0.00,meteohub,2013-04-12 09:02:00,
2013-04-12 04:07:00,36.9,34.7,29.65,ESE,112,13.0,14.0,92,0.00,,,0.00,meteohub,2013-04-12 09:07:00,
2013-04-12 04:12:00,36.9,34.7,29.65,SW,225,4.0,13.0,92,0.00,,,0.00,meteohub,2013-04-12 09:12:00,
2013-04-12 04:17:00,36.9,34.7,29.65,East,90,16.0,17.0,92,0.00,,,0.00,meteohub,2013-04-12 09:17:00,
2013-04-12 04:22:00,36.7,34.5,29.65,WSW,248,6.0,17.0,92,0.00,,,0.00,meteohub,2013-04-12 09:22:00,
2013-04-12 04:27:00,36.7,34.5,29.65,NNW,338,10.0,17.0,92,0.00,,,0.00,meteohub,2013-04-12 09:27:00,
2013-04-12 04:32:00,36.7,34.5,29.65,NNW,338,8.0,17.0,92,0.00,,,0.00,meteohub,2013-04-12 09:32:00,
2013-04-12 04:37:00,36.7,34.5,29.65,SE,135,6.0,17.0,92,0.00,,,0.00,meteohub,2013-04-12 09:37:00,
2013-04-12 04:42:00,36.7,34.5,29.65,WSW,248,6.0,15.0,92,0.00,,,0.00,meteohub,2013-04-12 09:42:00,
2013-04-12 04:47:00,36.7,34.5,29.65,WSW,248,6.0,13.0,92,0.00,,,0.00,meteohub,2013-04-12 09:47:00,
2013-04-12 04:52:00,36.7,34.5,29.65,NW,315,3.0,16.0,92,0.00,,,0.00,meteohub,2013-04-12 09:52:00,
2013-04-12 04:57:00,36.7,34.5,29.65,WSW,248,14.0,16.0,92,0.00,,,0.00,meteohub,2013-04-12 09:57:00,
2013-04-12 05:02:00,36.7,34.5,29.65,NNW,338,10.0,16.0,92,0.00,,,0.00,meteohub,2013-04-12 10:02:00,
2013-04-12 05:08:00,36.7,34.5,29.65,SW,225,4.0,14.0,92,0.00,,,0.00,meteohub,2013-04-12 10:08:00,
2013-04-12 05:13:00,36.7,34.5,29.65,WNW,292,3.0,14.0,92,0.00,,,0.00,meteohub,2013-04-12 10:13:00,
2013-04-12 05:18:00,36.7,34.5,29.68,West,270,5.0,11.0,92,0.00,,,0.00,meteohub,2013-04-12 10:18:00,
2013-04-12 05:23:00,36.7,34.5,29.68,SSW,202,6.0,10.0,92,0.00,,,0.00,meteohub,2013-04-12 10:23:00,
2013-04-12 05:28:00,36.7,34.9,29.68,WSW,248,2.0,10.0,93,0.00,,,0.00,meteohub,2013-04-12 10:28:00,
2013-04-12 05:33:00,36.7,34.5,29.65,West,270,8.0,10.0,92,0.00,,,0.00,meteohub,2013-04-12 10:33:00,
2013-04-12 05:38:00,36.7,34.5,29.65,SW,225,3.0,9.0,92,0.00,,,0.00,meteohub,2013-04-12 10:38:00,
2013-04-12 05:43:00,36.7,34.5,29.65,SSE,158,4.0,13.0,92,0.00,,,0.00,meteohub,2013-04-12 10:43:00,
2013-04-12 05:48:00,36.7,34.5,29.65,WSW,248,6.0,13.0,92,0.00,,,0.00,meteohub,2013-04-12 10:48:00,
2013-04-12 05:53:00,36.7,34.5,29.65,SSW,202,4.0,12.0,92,0.00,,,0.00,meteohub,2013-04-12 10:53:00,
2013-04-12 05:58:00,36.7,34.9,29.65,WNW,292,4.0,12.0,93,0.00,,,0.00,meteohub,2013-04-12 10:58:00,
2013-04-12 06:03:00,36.7,34.9,29.65,West,270,5.0,10.0,93,0.00,,,0.00,meteohub,2013-04-12 11:03:00,
2013-04-12 06:08:00,36.7,34.9,29.65,WSW,248,4.0,10.0,93,0.00,,,0.00,meteohub,2013-04-12 11:08:00,
2013-04-12 06:13:00,36.7,34.9,29.65,WSW,248,5.0,10.0,93,0.00,,,0.00,meteohub,2013-04-12 11:13:00,
2013-04-12 06:18:00,36.7,34.5,29.65,West,270,9.0,13.0,92,0.00,,,0.00,meteohub,2013-04-12 11:18:00,
2013-04-12 06:23:00,36.7,34.9,29.65,NE,45,7.0,13.0,93,0.00,,,0.00,meteohub,2013-04-12 11:23:00,
2013-04-12 06:28:00,36.7,34.9,29.65,WSW,248,8.0,13.0,93,0.00,,,0.00,meteohub,2013-04-12 11:28:00,
2013-04-12 06:33:00,36.7,34.9,29.65,SW,225,6.0,11.0,93,0.00,,,0.00,meteohub,2013-04-12 11:33:00,
2013-04-12 06:38:00,36.7,34.9,29.68,SW,225,3.0,10.0,93,0.00,,,0.00,meteohub,2013-04-12 11:38:00,
2013-04-12 06:43:00,36.7,34.9,29.68,SW,225,4.0,10.0,93,0.00,,,0.00,meteohub,2013-04-12 11:43:00,
2013-04-12 06:48:00,36.9,35.1,29.68,South,180,7.0,10.0,93,0.00,,,0.00,meteohub,2013-04-12 11:48:00,
2013-04-12 06:53:00,36.9,35.1,29.68,West,270,6.0,11.0,93,0.00,,,0.00,meteohub,2013-04-12 11:53:00,
2013-04-12 06:58:00,36.9,35.1,29.68,SW,225,14.0,14.0,93,0.00,,,0.00,meteohub,2013-04-12 11:58:00,
2013-04-12 07:04:00,36.9,35.1,29.68,WNW,292,10.0,13.0,93,0.00,,,0.00,meteohub,2013-04-12 12:04:00,
2013-04-12 07:09:00,36.9,35.1,29.68,SW,225,7.0,14.0,93,0.00,,,0.00,meteohub,2013-04-12 12:09:00,
2013-04-12 07:14:00,36.9,35.1,29.68,SSE,158,9.0,14.0,93,0.00,,,0.00,meteohub,2013-04-12 12:14:00,
2013-04-12 07:19:00,37.0,35.2,29.68,ESE,112,6.0,13.0,93,0.00,,,0.00,meteohub,2013-04-12 12:19:00,
2013-04-12 07:24:00,37.0,35.2,29.68,NNE,22,8.0,12.0,93,0.00,,,0.00,meteohub,2013-04-12 12:24:00,
2013-04-12 07:29:00,37.0,35.2,29.68,WSW,248,4.0,13.0,93,0.00,,,0.00,meteohub,2013-04-12 12:29:00,
2013-04-12 07:34:00,37.2,35.4,29.68,NNW,338,6.0,13.0,93,0.00,,,0.00,meteohub,2013-04-12 12:34:00,
2013-04-12 07:39:00,37.4,35.6,29.68,NNE,22,6.0,13.0,93,0.00,,,0.00,meteohub,2013-04-12 12:39:00,
2013-04-12 07:44:00,37.4,35.6,29.68,ENE,68,5.0,11.0,93,0.00,,,0.00,meteohub,2013-04-12 12:44:00,
2013-04-12 07:49:00,37.6,35.8,29.68,South,180,9.0,10.0,93,0.00,,,0.00,meteohub,2013-04-12 12:49:00,
2013-04-12 07:54:00,37.6,35.8,29.68,NNE,22,7.0,10.0,93,0.00,,,0.00,meteohub,2013-04-12 12:54:00,
2013-04-12 07:59:00,37.9,36.1,29.68,WSW,248,7.0,11.0,93,0.00,,,0.00,meteohub,2013-04-12 12:59:00,
2013-04-12 08:04:00,37.9,36.1,29.70,South,180,4.0,11.0,93,0.00,,,0.00,meteohub,2013-04-12 13:04:00,
2013-04-12 08:09:00,37.9,36.1,29.70,NW,315,4.0,13.0,93,0.00,,,0.00,meteohub,2013-04-12 13:09:00,
2013-04-12 08:14:00,37.9,36.1,29.70,West,270,3.0,14.0,93,0.00,,,0.00,meteohub,2013-04-12 13:14:00,
2013-04-12 08:20:00,38.1,36.0,29.70,South,180,4.0,14.0,92,0.00,,,0.00,meteohub,2013-04-12 13:20:00,
2013-04-12 08:25:00,38.1,36.0,29.70,SW,225,6.0,14.0,92,0.00,,,0.00,meteohub,2013-04-12 13:25:00,
2013-04-12 08:30:00,38.1,36.0,29.70,West,270,4.0,14.0,92,0.00,,,0.00,meteohub,2013-04-12 13:30:00,
2013-04-12 08:35:00,38.1,36.0,29.70,ESE,112,6.0,14.0,92,0.00,,,0.00,meteohub,2013-04-12 13:35:00,
2013-04-12 08:40:00,38.1,35.8,29.70,East,90,3.0,14.0,91,0.00,,,0.00,meteohub,2013-04-12 13:40:00,
2013-04-12 08:45:00,38.1,35.8,29.70,SW,225,13.0,18.0,91,0.00,,,0.00,meteohub,2013-04-12 13:45:00,
2013-04-12 08:50:00,38.3,36.0,29.73,WSW,248,10.0,18.0,91,0.00,,,0.00,meteohub,2013-04-12 13:50:00,
2013-04-12 08:55:00,38.5,36.1,29.73,WNW,292,5.0,20.0,91,0.00,,,0.00,meteohub,2013-04-12 13:55:00,
2013-04-12 09:00:00,38.5,36.1,29.73,West,270,14.0,20.0,91,0.00,,,0.00,meteohub,2013-04-12 14:00:00,
2013-04-12 09:05:00,38.7,36.3,29.70,North,0,5.0,20.0,91,0.00,,,0.00,meteohub,2013-04-12 14:05:00,
2013-04-12 09:10:00,38.7,36.3,29.70,SW,225,7.0,14.0,91,0.00,,,0.00,meteohub,2013-04-12 14:10:00,
2013-04-12 09:15:00,38.8,36.5,29.70,SSE,158,6.0,14.0,91,0.00,,,0.00,meteohub,2013-04-12 14:15:00,
2013-04-12 09:20:00,38.8,36.5,29.68,WSW,248,6.0,16.0,91,0.00,,,0.00,meteohub,2013-04-12 14:20:00,
2013-04-12 09:25:00,39.0,36.7,29.68,WSW,248,6.0,16.0,91,0.00,,,0.00,meteohub,2013-04-12 14:25:00,
2013-04-12 09:30:00,39.2,36.5,29.68,West,270,13.0,16.0,90,0.00,,,0.00,meteohub,2013-04-12 14:30:00,
2013-04-12 09:35:00,39.2,36.5,29.70,NNW,338,2.0,12.0,90,0.00,,,0.00,meteohub,2013-04-12 14:35:00,
2013-04-12 09:40:00,39.2,36.3,29.70,WSW,248,3.0,13.0,89,0.00,,,0.00,meteohub,2013-04-12 14:40:00,
2013-04-12 09:45:00,39.4,36.5,29.70,NE,45,4.0,13.0,89,0.00,,,0.00,meteohub,2013-04-12 14:45:00,
2013-04-12 09:50:00,39.4,36.5,29.70,WSW,248,10.0,12.0,89,0.00,,,0.00,meteohub,2013-04-12 14:50:00,
2013-04-12 09:55:00,39.6,36.3,29.70,SSW,202,6.0,16.0,88,0.00,,,0.00,meteohub,2013-04-12 14:55:00,
2013-04-12 10:00:00,39.6,36.3,29.70,South,180,5.0,16.0,88,0.00,,,0.00,meteohub,2013-04-12 15:00:00,
2013-04-12 10:05:00,39.7,36.5,29.68,SW,225,11.0,16.0,88,0.00,,,0.00,meteohub,2013-04-12 15:05:00,
2013-04-12 10:10:00,39.9,36.7,29.68,SW,225,9.0,16.0,88,0.00,,,0.00,meteohub,2013-04-12 15:10:00,
2013-04-12 10:15:00,39.9,36.7,29.68,WSW,248,5.0,19.0,88,0.00,,,0.00,meteohub,2013-04-12 15:15:00,
2013-04-12 10:20:00,40.1,36.5,29.70,WNW,292,3.0,19.0,87,0.00,,,0.00,meteohub,2013-04-12 15:20:00,
2013-04-12 10:25:00,40.5,37.2,29.70,SSE,158,16.0,16.0,88,0.00,,,0.00,meteohub,2013-04-12 15:25:00,
2013-04-12 10:30:00,40.5,36.9,29.70,NNW,338,8.0,16.0,87,0.00,,,0.00,meteohub,2013-04-12 15:30:00,
2013-04-12 10:35:00,40.8,37.2,29.70,West,270,7.0,21.0,87,0.00,,,0.00,meteohub,2013-04-12 15:35:00,
2013-04-12 10:40:00,41.0,37.2,29.70,SW,225,14.0,21.0,86,0.00,,,0.00,meteohub,2013-04-12 15:40:00,
2013-04-12 10:45:00,41.0,36.9,29.70,WSW,248,6.0,20.0,85,0.00,,,0.00,meteohub,2013-04-12 15:45:00,
2013-04-12 10:50:00,41.5,37.4,29.70,WSW,248,10.0,20.0,85,0.00,,,0.00,meteohub,2013-04-12 15:50:00,
2013-04-12 10:56:00,41.5,37.4,29.70,NNW,338,5.0,18.0,85,0.00,,,0.00,meteohub,2013-04-12 15:56:00,
2013-04-12 11:01:00,41.9,37.4,29.70,WSW,248,7.0,14.0,84,0.00,,,0.00,meteohub,2013-04-12 16:01:00,
2013-04-12 11:06:00,42.4,37.9,29.70,NW,315,5.0,14.0,84,0.00,,,0.00,meteohub,2013-04-12 16:06:00,
2013-04-12 11:11:00,43.0,38.5,29.70,West,270,6.0,16.0,84,0.00,,,0.00,meteohub,2013-04-12 16:11:00,
2013-04-12 11:16:00,43.2,37.8,29.70,SW,225,13.0,18.0,81,0.00,,,0.00,meteohub,2013-04-12 16:16:00,
2013-04-12 11:21:00,43.0,36.9,29.70,WSW,248,7.0,26.0,79,0.00,,,0.00,meteohub,2013-04-12 16:21:00,
2013-04-12 11:26:00,43.2,36.9,29.70,ESE,112,10.0,26.0,78,0.00,,,0.00,meteohub,2013-04-12 16:26:00,
2013-04-12 11:31:00,43.7,37.6,29.70,West,270,12.0,18.0,79,0.00,,,0.00,meteohub,2013-04-12 16:31:00,
2013-04-12 11:36:00,44.1,37.6,29.70,SSW,202,4.0,20.0,78,0.00,,,0.00,meteohub,2013-04-12 16:36:00,
2013-04-12 11:41:00,43.7,36.7,29.70,SSE,158,16.0,20.0,76,0.00,,,0.00,meteohub,2013-04-12 16:41:00,
2013-04-12 11:46:00,43.0,35.2,29.70,WSW,248,17.0,20.0,74,0.00,,,0.00,meteohub,2013-04-12 16:46:00,
2013-04-12 11:51:00,42.6,34.9,29.73,WSW,248,19.0,23.0,74,0.00,,,0.00,meteohub,2013-04-12 16:51:00,
2013-04-12 11:56:00,42.6,35.2,29.73,WSW,248,11.0,23.0,75,0.00,,,0.00,meteohub,2013-04-12 16:56:00,
2013-04-12 12:01:00,42.4,35.1,29.73,NNE,22,8.0,22.0,75,0.00,,,0.00,meteohub,2013-04-12 17:01:00,
2013-04-12 12:07:00,42.3,35.2,29.73,West,270,20.0,22.0,76,0.00,,,0.00,meteohub,2013-04-12 17:07:00,
2013-04-12 12:12:00,42.3,35.2,29.73,NW,315,11.0,22.0,76,0.00,,,0.00,meteohub,2013-04-12 17:12:00,
2013-04-12 12:17:00,42.3,35.6,29.73,SE,135,6.0,21.0,77,0.00,,,0.00,meteohub,2013-04-12 17:17:00,
2013-04-12 12:22:00,42.8,36.1,29.73,SSW,202,5.0,20.0,77,0.00,,,0.00,meteohub,2013-04-12 17:22:00,
2013-04-12 12:27:00,42.8,36.1,29.73,SW,225,13.0,20.0,77,0.00,,,0.00,meteohub,2013-04-12 17:27:00,
2013-04-12 12:32:00,42.8,35.8,29.76,WSW,248,17.0,18.0,76,0.00,,,0.00,meteohub,2013-04-12 17:32:00,
2013-04-12 12:37:00,42.8,35.8,29.76,WSW,248,10.0,21.0,76,0.00,,,0.00,meteohub,2013-04-12 17:37:00,
2013-04-12 12:42:00,43.0,36.3,29.76,WSW,248,11.0,21.0,77,0.00,,,0.00,meteohub,2013-04-12 17:42:00,
2013-04-12 12:47:00,43.2,36.5,29.76,West,270,13.0,21.0,77,0.00,,,0.00,meteohub,2013-04-12 17:47:00,
2013-04-12 12:53:00,43.2,36.5,29.76,SW,225,14.0,20.0,77,0.00,,,0.00,meteohub,2013-04-12 17:53:00,
2013-04-12 12:58:00,43.2,36.5,29.76,SW,225,3.0,20.0,77,0.00,,,0.00,meteohub,2013-04-12 17:58:00,
2013-04-12 13:03:00,43.3,37.0,29.76,WSW,248,4.0,20.0,78,0.00,,,0.00,meteohub,2013-04-12 18:03:00,
2013-04-12 13:08:00,43.5,37.2,29.76,West,270,10.0,15.0,78,0.00,,,0.00,meteohub,2013-04-12 18:08:00,
2013-04-12 13:13:00,43.5,36.9,29.76,West,270,5.0,18.0,77,0.00,,,0.00,meteohub,2013-04-12 18:13:00,
2013-04-12 13:19:00,43.7,37.2,29.73,WSW,248,13.0,18.0,78,0.00,,,0.00,meteohub,2013-04-12 18:19:00,
2013-04-12 13:24:00,43.9,37.4,29.73,West,270,6.0,13.0,78,0.00,,,0.00,meteohub,2013-04-12 18:24:00,
2013-04-12 13:29:00,43.7,36.3,29.73,South,180,10.0,21.0,75,0.00,,,0.00,meteohub,2013-04-12 18:29:00,
2013-04-12 14:26:00,42.4,37.6,29.76,WSW,248,10.0,24.0,83,0.00,,,0.00,meteohub,2013-04-12 19:26:00,
2013-04-12 14:27:00,42.4,37.6,29.76,WSW,248,20.0,24.0,83,0.00,,,0.00,meteohub,2013-04-12 19:27:00,
2013-04-12 14:32:00,42.4,37.6,29.76,SW,225,7.0,20.0,83,0.00,,,0.00,meteohub,2013-04-12 19:32:00,
2013-04-12 14:37:00,42.3,37.8,29.76,WSW,248,10.0,20.0,84,0.00,,,0.00,meteohub,2013-04-12 19:37:00,
2013-04-12 14:42:00,42.1,37.6,29.76,West,270,16.0,20.0,84,0.00,,,0.00,meteohub,2013-04-12 19:42:00,
2013-04-12 14:47:00,42.1,37.9,29.79,WSW,248,9.0,18.0,85,0.00,,,0.00,meteohub,2013-04-12 19:47:00,
2013-04-12 14:52:00,42.1,38.1,29.79,SW,225,11.0,18.0,86,0.00,,,0.00,meteohub,2013-04-12 19:52:00,
2013-04-12 14:57:00,41.9,37.4,29.79,WSW,248,11.0,20.0,84,0.00,,,0.00,meteohub,2013-04-12 19:57:00,
2013-04-12 15:02:00,41.7,36.7,29.79,WSW,248,17.0,20.0,82,0.00,,,0.00,meteohub,2013-04-12 20:02:00,
2013-04-12 15:07:00,41.5,35.8,29.79,West,270,17.0,23.0,80,0.00,,,0.00,meteohub,2013-04-12 20:07:00,
2013-04-12 15:12:00,41.4,36.0,29.79,WSW,248,13.0,25.0,81,0.00,,,0.00,meteohub,2013-04-12 20:12:00,
2013-04-12 15:17:00,41.0,35.6,29.79,WSW,248,6.0,25.0,81,0.00,,,0.00,meteohub,2013-04-12 20:17:00,
2013-04-12 15:22:00,40.8,35.4,29.79,West,270,18.0,24.0,81,0.00,,,0.00,meteohub,2013-04-12 20:22:00,
2013-04-12 15:27:00,40.6,35.6,29.79,West,270,31.0,31.0,82,0.00,,,0.00,meteohub,2013-04-12 20:27:00,
2013-04-12 15:32:00,40.3,36.1,29.82,WSW,248,11.0,31.0,85,0.00,,,0.00,meteohub,2013-04-12 20:32:00,
2013-04-12 15:37:00,40.3,36.5,29.82,WSW,248,21.0,31.0,86,0.00,,,0.00,meteohub,2013-04-12 20:37:00,
2013-04-12 15:42:00,40.3,36.5,29.82,SSW,202,17.0,31.0,86,0.00,,,0.00,meteohub,2013-04-12 20:42:00,
2013-04-12 15:47:00,40.1,36.3,29.82,WSW,248,7.0,24.0,86,0.00,,,0.00,meteohub,2013-04-12 20:47:00,
2013-04-12 15:52:00,40.1,36.5,29.82,West,270,17.0,28.0,87,0.00,,,0.00,meteohub,2013-04-12 20:52:00,
2013-04-12 15:57:00,39.7,36.0,29.82,WSW,248,13.0,28.0,86,0.00,,,0.00,meteohub,2013-04-12 20:57:00,
2013-04-12 16:02:00,39.6,35.8,29.82,SW,225,17.0,28.0,86,0.00,,,0.00,meteohub,2013-04-12 21:02:00,
2013-04-12 16:07:00,39.4,35.6,29.82,WSW,248,11.0,29.0,86,0.00,,,0.00,meteohub,2013-04-12 21:07:00,
2013-04-12 16:12:00,39.4,35.6,29.82,WSW,248,13.0,29.0,86,0.00,,,0.00,meteohub,2013-04-12 21:12:00,
2013-04-12 16:17:00,39.2,35.1,29.82,West,270,19.0,29.0,85,0.00,,,0.00,meteohub,2013-04-12 21:17:00,
2013-04-12 16:22:00,39.2,34.7,29.82,West,270,15.0,25.0,84,0.00,,,0.00,meteohub,2013-04-12 21:22:00,
2013-04-12 16:28:00,39.2,34.5,29.82,WSW,248,13.0,25.0,83,0.00,,,0.00,meteohub,2013-04-12 21:28:00,
2013-04-12 16:33:00,39.2,33.6,29.82,West,270,10.0,28.0,80,0.00,,,0.00,meteohub,2013-04-12 21:33:00,
2013-04-12 16:38:00,39.0,33.1,29.82,SW,225,6.0,28.0,79,0.00,,,0.00,meteohub,2013-04-12 21:38:00,
2013-04-12 16:43:00,39.0,32.7,29.82,West,270,14.0,28.0,78,0.00,,,0.00,meteohub,2013-04-12 21:43:00,
2013-04-12 16:48:00,39.0,32.7,29.82,West,270,13.0,22.0,78,0.00,,,0.00,meteohub,2013-04-12 21:48:00,
2013-04-12 16:53:00,39.2,32.9,29.82,West,270,9.0,22.0,78,0.00,,,0.00,meteohub,2013-04-12 21:53:00,
2013-04-12 16:58:00,39.0,32.4,29.82,West,270,12.0,22.0,77,0.00,,,0.00,meteohub,2013-04-12 21:58:00,
2013-04-12 17:03:00,38.8,32.0,29.85,West,270,17.0,22.0,76,0.00,,,0.00,meteohub,2013-04-12 22:03:00,
2013-04-12 17:08:00,38.8,32.0,29.85,West,270,21.0,22.0,76,0.00,,,0.00,meteohub,2013-04-12 22:08:00,
2013-04-12 17:13:00,38.8,32.0,29.85,West,270,13.0,21.0,76,0.00,,,0.00,meteohub,2013-04-12 22:13:00,
2013-04-12 17:18:00,38.8,31.6,29.85,WSW,248,9.0,21.0,75,0.00,,,0.00,meteohub,2013-04-12 22:18:00,
2013-04-12 17:23:00,38.8,30.9,29.85,WSW,248,17.0,24.0,73,0.00,,,0.00,meteohub,2013-04-12 22:23:00,
2013-04-12 17:28:00,38.7,30.0,29.85,WSW,248,14.0,24.0,71,0.00,,,0.00,meteohub,2013-04-12 22:28:00,
2013-04-12 17:33:00,38.7,30.4,29.88,West,270,10.0,22.0,72,0.00,,,0.00,meteohub,2013-04-12 22:33:00,
2013-04-12 17:38:00,38.7,30.0,29.88,West,270,14.0,22.0,71,0.00,,,0.00,meteohub,2013-04-12 22:38:00,
2013-04-12 17:43:00,38.5,29.8,29.88,West,270,13.0,22.0,71,0.00,,,0.00,meteohub,2013-04-12 22:43:00,
2013-04-12 17:48:00,38.5,29.7,29.88,West,270,9.0,21.0,70,0.00,,,0.00,meteohub,2013-04-12 22:48:00,
2013-04-12 17:53:00,38.3,28.8,29.88,WNW,292,13.0,24.0,68,0.00,,,0.00,meteohub,2013-04-12 22:53:00,
2013-04-12 17:58:00,38.3,29.1,29.88,West,270,11.0,24.0,69,0.00,,,0.00,meteohub,2013-04-12 22:58:00,
2013-04-12 18:03:00,38.1,28.9,29.88,West,270,10.0,24.0,69,0.00,,,0.00,meteohub,2013-04-12 23:03:00,
2013-04-12 18:08:00,38.1,28.9,29.88,West,270,18.0,21.0,69,0.00,,,0.00,meteohub,2013-04-12 23:08:00,
2013-04-12 18:13:00,38.1,28.6,29.88,West,270,12.0,20.0,68,0.00,,,0.00,meteohub,2013-04-12 23:13:00,
2013-04-12 18:18:00,38.1,28.6,29.88,SW,225,11.0,20.0,68,0.00,,,0.00,meteohub,2013-04-12 23:18:00,
2013-04-12 18:23:00,38.1,28.6,29.88,WSW,248,4.0,20.0,68,0.00,,,0.00,meteohub,2013-04-12 23:23:00,
2013-04-12 18:28:00,37.9,28.4,29.88,WNW,292,7.0,17.0,68,0.00,,,0.00,meteohub,2013-04-12 23:28:00,
2013-04-12 18:33:00,37.9,28.4,29.88,WNW,292,18.0,18.0,68,0.00,,,0.00,meteohub,2013-04-12 23:33:00,
2013-04-12 18:38:00,38.1,28.9,29.88,West,270,12.0,18.0,69,0.00,,,0.00,meteohub,2013-04-12 23:38:00,
2013-04-12 18:43:00,38.1,28.9,29.88,West,270,8.0,18.0,69,0.00,,,0.00,meteohub,2013-04-12 23:43:00,
2013-04-12 18:48:00,37.9,28.4,29.88,WNW,292,10.0,21.0,68,0.00,,,0.00,meteohub,2013-04-12 23:48:00,
2013-04-12 18:53:00,37.9,28.8,29.88,West,270,13.0,21.0,69,0.00,,,0.00,meteohub,2013-04-12 23:53:00,
2013-04-12 18:59:00,37.9,28.4,29.88,West,270,9.0,21.0,68,0.00,,,0.00,meteohub,2013-04-12 23:59:00,
2013-04-12 19:04:00,37.9,28.0,29.85,West,270,7.0,16.0,67,0.00,,,0.00,meteohub,2013-04-13 00:04:00,
2013-04-12 19:09:00,37.9,27.7,29.85,WSW,248,10.0,16.0,66,0.00,,,0.00,meteohub,2013-04-13 00:09:00,
2013-04-12 19:14:00,37.9,27.3,29.85,WSW,248,20.0,20.0,65,0.00,,,0.00,meteohub,2013-04-13 00:14:00,
2013-04-12 19:19:00,37.9,27.3,29.88,WSW,248,7.0,20.0,65,0.00,,,0.00,meteohub,2013-04-13 00:19:00,
2013-04-12 19:24:00,37.9,28.0,29.88,West,270,10.0,20.0,67,0.00,,,0.00,meteohub,2013-04-13 00:24:00,
2013-04-12 19:29:00,37.8,28.2,29.88,SW,225,5.0,20.0,68,0.00,,,0.00,meteohub,2013-04-13 00:29:00,
2013-04-12 19:34:00,37.8,28.6,29.88,SSW,202,6.0,17.0,69,0.00,,,0.00,meteohub,2013-04-13 00:34:00,
2013-04-12 19:39:00,37.8,28.6,29.88,SW,225,7.0,17.0,69,0.00,,,0.00,meteohub,2013-04-13 00:39:00,
2013-04-12 19:44:00,37.6,28.8,29.88,SE,135,7.0,15.0,70,0.00,,,0.00,meteohub,2013-04-13 00:44:00,
2013-04-12 19:49:00,37.6,28.8,29.88,WSW,248,8.0,18.0,70,0.00,,,0.00,meteohub,2013-04-13 00:49:00,
2013-04-12 19:54:00,37.6,28.4,29.88,WSW,248,10.0,18.0,69,0.00,,,0.00,meteohub,2013-04-13 00:54:00,
2013-04-12 19:59:00,37.6,28.4,29.88,SW,225,14.0,18.0,69,0.00,,,0.00,meteohub,2013-04-13 00:59:00,
2013-04-12 20:04:00,37.6,28.8,29.88,WSW,248,13.0,14.0,70,0.00,,,0.00,meteohub,2013-04-13 01:04:00,
2013-04-12 20:09:00,37.4,28.2,29.88,WSW,248,13.0,21.0,69,0.00,,,0.00,meteohub,2013-04-13 01:09:00,
2013-04-12 20:14:00,37.4,28.6,29.88,West,270,12.0,21.0,70,0.00,,,0.00,meteohub,2013-04-13 01:14:00,
2013-04-12 20:19:00,37.4,28.6,29.91,WSW,248,13.0,21.0,70,0.00,,,0.00,meteohub,2013-04-13 01:19:00,
2013-04-12 20:24:00,37.4,28.9,29.91,West,270,13.0,20.0,71,0.00,,,0.00,meteohub,2013-04-13 01:24:00,
2013-04-12 20:29:00,37.4,28.9,29.91,WSW,248,10.0,14.0,71,0.00,,,0.00,meteohub,2013-04-13 01:29:00,
2013-04-12 20:34:00,37.4,28.6,29.91,SW,225,10.0,18.0,70,0.00,,,0.00,meteohub,2013-04-13 01:34:00,
2013-04-12 20:39:00,37.4,28.6,29.91,WSW,248,11.0,20.0,70,0.00,,,0.00,meteohub,2013-04-13 01:39:00,
2013-04-12 20:44:00,37.4,28.2,29.91,West,270,14.0,20.0,69,0.00,,,0.00,meteohub,2013-04-13 01:44:00,
2013-04-12 20:49:00,37.4,28.2,29.91,West,270,10.0,20.0,69,0.00,,,0.00,meteohub,2013-04-13 01:49:00,
2013-04-12 20:54:00,37.4,28.6,29.91,WSW,248,8.0,16.0,70,0.00,,,0.00,meteohub,2013-04-13 01:54:00,
2013-04-12 20:59:00,37.4,28.6,29.91,West,270,9.0,16.0,70,0.00,,,0.00,meteohub,2013-04-13 01:59:00,
2013-04-12 21:04:00,37.4,28.6,29.91,WSW,248,10.0,16.0,70,0.00,,,0.00,meteohub,2013-04-13 02:04:00,
2013-04-12 21:09:00,37.4,28.2,29.91,WSW,248,11.0,13.0,69,0.00,,,0.00,meteohub,2013-04-13 02:09:00,
2013-04-12 21:14:00,37.4,27.9,29.91,West,270,9.0,16.0,68,0.00,,,0.00,meteohub,2013-04-13 02:14:00,
2013-04-12 21:19:00,37.4,27.5,29.91,WSW,248,15.0,21.0,67,0.00,,,0.00,meteohub,2013-04-13 02:19:00,
2013-04-12 21:24:00,37.2,27.3,29.91,SW,225,21.0,21.0,67,0.00,,,0.00,meteohub,2013-04-13 02:24:00,
2013-04-12 21:29:00,37.2,27.3,29.91,WSW,248,22.0,22.0,67,0.00,,,0.00,meteohub,2013-04-13 02:29:00,
2013-04-12 21:34:00,37.2,27.3,29.91,West,270,16.0,22.0,67,0.00,,,0.00,meteohub,2013-04-13 02:34:00,
2013-04-12 21:39:00,37.2,27.7,29.91,West,270,22.0,22.0,68,0.00,,,0.00,meteohub,2013-04-13 02:39:00,
2013-04-12 21:44:00,37.2,27.7,29.91,West,270,13.0,22.0,68,0.00,,,0.00,meteohub,2013-04-13 02:44:00,
2013-04-12 21:49:00,37.0,27.5,29.91,West,270,10.0,22.0,68,0.00,,,0.00,meteohub,2013-04-13 02:49:00,
2013-04-12 21:54:00,37.0,27.5,29.91,NW,315,12.0,22.0,68,0.00,,,0.00,meteohub,2013-04-13 02:54:00,
2013-04-12 21:59:00,37.0,27.9,29.91,WSW,248,8.0,18.0,69,0.00,,,0.00,meteohub,2013-04-13 02:59:00,
2013-04-12 22:04:00,37.0,27.9,29.91,WSW,248,8.0,18.0,69,0.00,,,0.00,meteohub,2013-04-13 03:04:00,
2013-04-12 22:09:00,36.9,28.0,29.91,West,270,9.0,14.0,70,0.00,,,0.00,meteohub,2013-04-13 03:09:00,
2013-04-12 22:14:00,36.9,28.0,29.91,West,270,9.0,14.0,70,0.00,,,0.00,meteohub,2013-04-13 03:14:00,
2013-04-12 22:19:00,36.9,28.4,29.94,WSW,248,9.0,15.0,71,0.00,,,0.00,meteohub,2013-04-13 03:19:00,
2013-04-12 22:24:00,36.9,28.4,29.94,SW,225,10.0,15.0,71,0.00,,,0.00,meteohub,2013-04-13 03:24:00,
2013-04-12 22:29:00,36.9,28.4,29.94,West,270,10.0,15.0,71,0.00,,,0.00,meteohub,2013-04-13 03:29:00,
2013-04-12 22:34:00,36.9,28.8,29.94,West,270,10.0,15.0,72,0.00,,,0.00,meteohub,2013-04-13 03:34:00,
2013-04-12 22:40:00,36.7,28.6,29.94,SW,225,7.0,15.0,72,0.00,,,0.00,meteohub,2013-04-13 03:40:00,
2013-04-12 22:44:00,36.7,28.9,29.94,WSW,248,5.0,14.0,73,0.00,,,0.00,meteohub,2013-04-13 03:44:00,
2013-04-12 22:50:00,36.7,28.9,29.94,West,270,10.0,14.0,73,0.00,,,0.00,meteohub,2013-04-13 03:50:00,
2013-04-12 22:55:00,36.7,29.1,29.94,West,270,13.0,13.0,74,0.00,,,0.00,meteohub,2013-04-13 03:55:00,
2013-04-12 22:59:00,36.7,29.1,29.94,West,270,9.0,16.0,74,0.00,,,0.00,meteohub,2013-04-13 03:59:00,
2013-04-12 23:00:00,36.7,29.1,29.94,West,270,9.0,16.0,74,0.00,,,0.00,meteohub,2013-04-13 04:00:00,
2013-04-12 23:06:00,36.7,28.9,29.94,West,270,10.0,19.0,73,0.00,,,0.00,meteohub,2013-04-13 04:06:00,
2013-04-12 23:11:00,36.7,28.9,29.94,WNW,292,17.0,19.0,73,0.00,,,0.00,meteohub,2013-04-13 04:11:00,
2013-04-12 23:16:00,36.7,28.9,29.94,West,270,8.0,17.0,73,0.00,,,0.00,meteohub,2013-04-13 04:16:00,
2013-04-12 23:21:00,36.5,28.4,29.91,NE,45,10.0,19.0,72,0.00,,,0.00,meteohub,2013-04-13 04:21:00,
2013-04-12 23:26:00,36.5,28.4,29.91,WSW,248,11.0,19.0,72,0.00,,,0.00,meteohub,2013-04-13 04:26:00,
2013-04-12 23:31:00,36.3,28.2,29.91,West,270,10.0,19.0,72,0.00,,,0.00,meteohub,2013-04-13 04:31:00,
2013-04-12 23:36:00,36.3,28.2,29.91,WSW,248,14.0,18.0,72,0.00,,,0.00,meteohub,2013-04-13 04:36:00,
2013-04-12 23:41:00,36.3,28.2,29.91,West,270,10.0,18.0,72,0.00,,,0.00,meteohub,2013-04-13 04:41:00,
2013-04-12 23:46:00,36.3,28.2,29.91,WSW,248,9.0,18.0,72,0.00,,,0.00,meteohub,2013-04-13 04:46:00,
2013-04-12 23:51:00,36.3,28.2,29.94,West,270,7.0,17.0,72,0.00,,,0.00,meteohub,2013-04-13 04:51:00,
2013-04-12 23:56:00,36.1,28.0,29.94,WSW,248,11.0,17.0,72,0.00,,,0.00,meteohub,2013-04-13 04:56:00,